This is the latest recevied weather packets stored in our database for station/object LRBC. If no packets are shown the sender has not sent any weather packets the latest 1 day(s).
| Time | Temp. | Humidity | Pressure | Rain* | Wind** | Luminosity | Snow |
|---|---|---|---|---|---|---|---|
| 1778048328 | 13.89° C | 63% | 1014 hPa | - | - | - | - |
| 1778047429 | 13.89° C | 63% | 1014 hPa | - | - | - | - |
| 1778046529 | 12.78° C | 67% | 1014 hPa | - | - | - | - |
| 1778045636 | 12.78° C | 67% | 1014 hPa | - | - | - | - |
| 1778044728 | 12.22° C | 67% | 1014 hPa | - | - | - | - |
| 1778043841 | 12.22° C | 67% | 1014 hPa | - | - | - | - |
| 1778042943 | 10° C | 76% | 1014 hPa | - | - | - | - |
| 1778039328 | 7.78° C | 87% | 1014 hPa | - | - | - | - |
| 1778037527 | 7.78° C | 82% | 1014 hPa | - | - | - | - |
| 1778036627 | 7.78° C | 82% | 1014 hPa | - | - | - | - |
| 1778034827 | 7.78° C | 82% | 1014 hPa | - | - | - | - |
| 1778033925 | 7.78° C | 82% | 1014 hPa | - | - | - | - |
| 1778033027 | 7.78° C | 82% | 1014 hPa | - | - | - | - |
| 1778032127 | 8.89° C | 76% | 1014 hPa | - | - | - | - |
| 1778030328 | 8.89° C | 76% | 1014 hPa | - | - | - | - |
| 1778029427 | 8.89° C | 76% | 1014 hPa | - | - | - | - |
| 1778026728 | 10° C | 76% | 1014 hPa | - | - | - | - |
| 1778024928 | 10° C | 76% | 1014 hPa | - | - | - | - |
| 1778022228 | 11.11° C | 72% | 1014 hPa | - | - | - | - |
| 1778021328 | 12.22° C | 67% | 1014 hPa | - | - | - | - |
| 1778018628 | 12.78° C | 67% | 1014 hPa | - | - | - | - |
* Rain since midnight (hover to see other rain measurements)
** Current wind speed in m/s (hover to see current wind gust speed)